Temp
9 9 9 9 9 9 8 8 8 7 7 7 7 8 8 8 8 8 8 9 9 9 9 9 10 11 12 13 14 15 14 15 18 18 20 23 22 22 21 21 21 19 19 19 16
9 9 9 9 9 9 9 8 8 7 7 7 7 8 8 8 7 8 8 8 9 9 9 9 10 10 11 13 13 14 13 16 19 21 21 22 23 21 21 20 19 17 17 17 16
9 9 9 9 9 9 9 8 7 7 7 7 8 8 8 8 8 7 8 8 9 9 9 9 10 9 10 13 14 15 14 18 20 22 23 22 22 21 22 19 20 17 15 16 15
10 10 10 9 9 9 8 8 8 8 8 8 8 8 8 8 8 7 7 7 8 8 8 8 10 8 9 13 14 14 15 18 21 20 21 21 22 21 21 19 21 20 18 16 15
10 10 10 10 10 9 9 9 8 8 8 8 8 8 9 9 7 7 7 8 8 8 8 8 7 7 9 14 15 15 17 17 18 18 21 22 21 19 18 19 19 18 17 16 14
11 10 10 10 10 10 9 9 9 9 9 9 9 8 8 9 7 7 7 8 8 8 8 10 8 8 8 14 15 17 17 17 17 18 20 20 21 21 18 18 18 18 16 15 14
11 11 10 10 11 11 10 9 9 9 9 9 9 8 9 7 7 7 7 7 7 7 8 9 8 7 11 15 17 18 15 17 17 18 18 20 18 19 18 18 17 17 17 16 15
11 11 11 11 11 11 10 10 10 10 10 10 9 9 8 8 8 7 7 7 7 7 9 9 8 8 10 16 17 16 15 14 17 17 17 17 16 17 18 18 18 17 17 16 16
12 11 11 11 12 11 11 11 10 10 10 10 10 10 9 9 8 7 8 8 7 8 9 9 9 12 15 14 14 14 13 14 15 17 17 16 16 18 19 19 18 17 16 16 16
12 12 12 12 11 12 11 11 11 11 11 10 11 11 10 9 8 8 8 9 9 8 9 9 11 13 14 13 12 14 15 15 14 16 17 16 17 16 18 19 19 18 17 16 16
12 12 12 12 12 12 12 12 12 12 11 11 11 11 10 10 9 9 9 9 9 10 13 13 12 10 15 15 14 17 17 16 15 16 17 17 16 16 18 18 19 19 18 17 17
12 11 12 13 12 12 12 12 12 11 11 11 11 11 11 11 11 10 10 10 11 13 14 12 11 12 13 15 16 16 16 14 14 16 16 17 16 16 16 17 19 20 19 19 18
12 11 11 12 12 12 12 12 12 11 12 12 12 11 11 11 11 11 11 12 13 13 13 12 12 13 15 13 14 14 15 15 14 15 17 16 17 16 17 18 17 17 17 18 17
12 11 11 11 11 11 11 11 12 11 10 12 13 12 12 11 12 11 12 11 13 13 12 11 13 14 14 13 11 14 12 16 14 14 11 17 11 15 14 14 15 16 16 16 16
12 11 11 11 11 10 11 11 11 11 9 13 13 13 13 13 13 12 12 13 12 13 12 10 10 12 11 11 11 12 12 15 16 16 13 16 11 16 14 14 14 16 16 15 14
12 12 11 11 11 11 11 11 11 9 8 8 13 13 14 14 13 13 13 13 12 12 11 11 11 10 11 12 12 12 14 16 17 14 10 14 11 11 13 16 15 16 15 14 13
12 12 11 11 11 11 11 11 8 8 13 11 11 13 13 13 14 13 13 11 11 10 12 12 11 11 11 12 13 13 14 10 10 8 10 13 10 13 15 16 15 14 15 14 13
13 12 12 11 12 12 11 11 8 11 12 13 13 12 13 12 13 14 14 12 11 11 12 10 10 9 10 10 10 12 12 9 12 10 10 12 10 11 14 14 14 14 14 14 13
13 12 12 12 12 12 10 8 9 11 11 11 13 13 14 13 12 14 12 11 11 10 10 13 10 10 10 10 10 12 9 11 9 11 9 10 15 12 13 12 13 13 13 13 12
13 12 11 12 12 12 9 9 10 10 10 12 12 13 13 13 13 13 12 11 10 12 12 12 10 10 11 10 11 11 11 11 8 11 13 11 16 8 6 12 12 12 13 13 13
13 12 13 13 12 12 7 10 11 10 10 11 12 13 13 12 13 12 11 10 10 10 11 11 12 11 11 11 11 11 11 12 11 11 10 11 10 13 9 14 12 13 14 13 12
13 13 13 13 12 12 9 12 10 10 10 11 11 12 12 13 12 12 11 10 10 10 11 10 10 8 11 10 11 11 11 12 8 12 11 10 7 14 12 13 14 15 14 14 13
13 14 13 13 12 10 10 10 11 11 11 12 12 11 12 12 12 12 12 9 9 9 9 9 11 8 10 9 10 11 12 12 11 10 10 9 9 12 12 12 13 13 14 13 13
13 12 13 13 13 13 12 12 10 9 10 11 11 11 12 13 12 12 12 10 9 9 8 9 11 10 8 11 10 11 11 11 11 6 10 10 14 12 13 14 14 14 14 14 13
12 11 11 11 12 12 13 13 12 11 10 10 11 12 12 13 13 12 12 10 9 9 10 9 9 6 8 10 11 10 10 10 8 8 9 12 11 11 11 10 12 13 13 13 12
11 11 11 11 10 12 10 12 13 11 12 11 11 12 12 12 11 11 11 11 11 10 10 9 8 10 9 10 9 8 8 9 9 10 10 10 11 12 13 12 12 11 11 10 10
11 11 10 10 11 12 12 12 12 11 10 10 11 11 11 10 9 9 9 10 10 9 10 10 9 7 8 9 8 8 10 9 10 11 11 9 11 11 9 10 10 9 9 9 9
Height
1510 1508 1505 1503 1500 1497 1494 1490 1487 1484 1481 1479 1478 1477 1476 1475 1476 1477 1479 1482 1482 1484 1486 1488 1491 1493 1495 1498 1500 1502 1506 1500 1494 1497 1494 1493 1494 1498 1502 1506 1509 1513 1514 1516 1525
1511 1508 1506 1503 1499 1495 1492 1488 1485 1484 1481 1479 1478 1477 1476 1476 1477 1479 1480 1480 1481 1483 1486 1488 1491 1493 1495 1495 1498 1497 1501 1494 1488 1490 1492 1499 1499 1501 1505 1506 1510 1514 1518 1521 1524
1512 1509 1506 1503 1499 1494 1490 1487 1483 1482 1481 1480 1479 1478 1478 1478 1479 1480 1480 1479 1480 1482 1484 1487 1489 1494 1494 1494 1495 1495 1497 1489 1484 1484 1487 1496 1498 1500 1502 1506 1505 1510 1516 1521 1525
1512 1510 1507 1503 1499 1495 1491 1487 1483 1482 1482 1480 1480 1480 1480 1479 1483 1481 1480 1480 1480 1482 1484 1485 1488 1495 1496 1489 1492 1495 1494 1489 1485 1484 1488 1495 1497 1498 1501 1503 1503 1507 1513 1518 1524
1513 1510 1507 1504 1500 1496 1493 1489 1487 1485 1484 1482 1481 1481 1481 1481 1483 1482 1481 1481 1480 1482 1483 1483 1490 1497 1490 1487 1491 1493 1488 1489 1486 1484 1487 1493 1498 1501 1504 1503 1504 1509 1513 1518 1524
1513 1510 1508 1505 1501 1497 1495 1492 1489 1487 1485 1484 1484 1483 1482 1484 1484 1481 1480 1480 1479 1479 1481 1484 1492 1495 1496 1485 1487 1487 1489 1488 1490 1486 1486 1493 1498 1499 1504 1502 1506 1510 1514 1519 1523
1513 1512 1509 1506 1502 1499 1496 1494 1491 1490 1488 1486 1485 1485 1486 1489 1485 1483 1481 1481 1480 1479 1481 1482 1489 1497 1491 1486 1484 1484 1491 1490 1490 1486 1490 1497 1502 1500 1501 1504 1507 1511 1515 1520 1523
1514 1512 1510 1507 1504 1501 1498 1496 1493 1492 1490 1488 1487 1487 1489 1488 1486 1484 1483 1482 1479 1477 1479 1481 1486 1493 1488 1482 1481 1487 1492 1500 1491 1488 1491 1495 1507 1502 1503 1504 1508 1512 1516 1520 1523
1514 1512 1511 1509 1506 1503 1500 1498 1496 1494 1491 1489 1488 1488 1491 1490 1487 1485 1484 1482 1480 1483 1486 1490 1487 1485 1477 1483 1488 1487 1501 1498 1499 1493 1493 1497 1502 1501 1503 1505 1509 1512 1516 1520 1522
1513 1512 1510 1509 1507 1505 1502 1499 1497 1494 1490 1489 1490 1491 1493 1492 1489 1486 1485 1485 1483 1486 1486 1488 1488 1485 1481 1485 1500 1490 1491 1494 1498 1494 1492 1497 1498 1500 1503 1504 1507 1511 1515 1519 1521
1511 1510 1509 1508 1507 1505 1503 1500 1501 1501 1494 1495 1496 1494 1493 1491 1490 1489 1489 1488 1483 1483 1480 1482 1485 1492 1479 1481 1483 1478 1483 1489 1491 1490 1492 1496 1501 1503 1504 1505 1506 1509 1512 1517 1520
1509 1508 1508 1507 1506 1506 1505 1504 1502 1504 1500 1498 1496 1496 1493 1490 1492 1491 1490 1491 1486 1484 1480 1487 1492 1489 1485 1479 1479 1479 1483 1494 1494 1491 1494 1495 1501 1502 1504 1505 1506 1507 1509 1514 1518
1508 1506 1505 1504 1504 1505 1505 1505 1504 1502 1501 1500 1498 1497 1497 1495 1494 1492 1492 1488 1483 1484 1487 1491 1493 1487 1482 1483 1486 1487 1483 1489 1494 1493 1492 1497 1504 1505 1504 1504 1505 1506 1508 1511 1515
1508 1505 1503 1502 1504 1503 1504 1504 1503 1503 1505 1505 1500 1500 1498 1495 1496 1494 1493 1494 1494 1492 1490 1495 1492 1486 1485 1484 1496 1491 1491 1482 1490 1499 1523 1499 1536 1506 1505 1506 1506 1507 1508 1512 1514
1508 1505 1504 1502 1503 1503 1504 1503 1503 1505 1521 1507 1503 1501 1498 1498 1498 1496 1494 1493 1492 1490 1494 1507 1500 1495 1495 1497 1499 1500 1492 1489 1489 1494 1507 1504 1525 1504 1502 1507 1507 1505 1508 1512 1515
1509 1506 1504 1504 1503 1502 1502 1502 1504 1513 1527 1515 1506 1504 1499 1498 1497 1496 1495 1495 1495 1494 1496 1502 1502 1503 1499 1501 1500 1497 1495 1490 1488 1500 1531 1511 1524 1521 1510 1501 1502 1504 1508 1512 1513
1510 1506 1503 1502 1502 1502 1503 1504 1514 1523 1514 1516 1511 1506 1500 1501 1499 1499 1497 1499 1503 1508 1501 1500 1504 1503 1504 1502 1498 1496 1495 1523 1529 1540 1534 1513 1526 1508 1499 1497 1497 1501 1506 1510 1512
1510 1507 1505 1502 1501 1501 1502 1505 1521 1516 1513 1511 1508 1505 1505 1505 1502 1499 1496 1502 1502 1501 1501 1508 1514 1511 1508 1509 1510 1504 1505 1526 1524 1535 1531 1516 1528 1513 1498 1499 1500 1502 1506 1510 1512
1509 1509 1505 1504 1502 1501 1502 1516 1521 1517 1516 1514 1507 1505 1502 1504 1506 1499 1507 1509 1509 1507 1511 1502 1516 1512 1511 1510 1510 1506 1520 1513 1524 1519 1533 1521 1501 1502 1501 1503 1504 1506 1508 1509 1511
1509 1509 1508 1505 1504 1503 1505 1517 1517 1518 1518 1514 1512 1507 1509 1508 1505 1505 1509 1515 1513 1510 1508 1505 1517 1513 1510 1511 1510 1510 1512 1520 1527 1530 1522 1523 1501 1521 1515 1503 1503 1504 1505 1507 1509
1509 1509 1508 1507 1505 1505 1516 1518 1517 1518 1519 1518 1514 1510 1507 1510 1506 1509 1514 1517 1515 1511 1507 1508 1507 1515 1512 1513 1514 1513 1514 1512 1517 1520 1533 1532 1523 1498 1504 1497 1500 1502 1504 1506 1508
1510 1510 1509 1507 1508 1507 1513 1511 1515 1516 1518 1518 1518 1514 1512 1510 1509 1509 1513 1515 1515 1512 1510 1511 1510 1522 1516 1515 1515 1514 1513 1512 1531 1520 1521 1528 1533 1497 1498 1498 1498 1501 1503 1506 1507
1510 1510 1510 1508 1511 1514 1516 1516 1516 1515 1515 1516 1516 1517 1514 1512 1514 1513 1513 1518 1516 1514 1515 1512 1512 1527 1521 1521 1517 1516 1513 1514 1515 1519 1524 1533 1525 1498 1499 1500 1500 1501 1503 1504 1506
1512 1511 1510 1509 1510 1510 1513 1514 1517 1517 1517 1516 1515 1515 1514 1512 1512 1513 1513 1517 1516 1516 1515 1514 1512 1517 1530 1520 1520 1516 1515 1517 1520 1538 1522 1518 1503 1507 1503 1502 1502 1501 1502 1503 1504
1514 1513 1513 1512 1512 1513 1513 1513 1515 1516 1518 1518 1516 1514 1514 1512 1511 1513 1513 1514 1515 1514 1513 1513 1519 1526 1520 1516 1514 1515 1514 1514 1522 1521 1527 1510 1510 1505 1503 1503 1504 1503 1503 1504 1506
1514 1515 1514 1514 1513 1513 1513 1513 1513 1515 1515 1516 1516 1516 1516 1515 1517 1517 1516 1515 1516 1517 1516 1517 1521 1517 1516 1513 1515 1519 1514 1513 1513 1510 1509 1510 1506 1502 1501 1501 1501 1501 1501 1502 1502
1513 1513 1515 1514 1514 1513 1511 1511 1512 1515 1517 1516 1516 1516 1516 1517 1518 1519 1519 1519 1519 1519 1517 1519 1522 1527 1524 1517 1517 1516 1501 1505 1505 1504 1506 1515 1507 1505 1505 1506 1506 1505 1505 1504 1503
Wind_Speed
8 11 14 16 18 20 21 20 18 17 18 8 7 5 4 2 2 3 5 5 7 7 14 14 14 18 18 18 19 24 4 12 16 23 17 5 7 2 11 15 10 6 9 15 31
10 13 15 17 20 21 20 18 16 13 13 7 7 5 4 4 3 2 4 6 7 9 10 15 18 14 16 22 15 9 6 12 15 19 15 18 13 9 6 15 9 17 13 23 30
12 14 16 18 21 21 18 17 17 8 7 6 6 5 6 5 3 5 5 3 7 14 11 10 11 10 18 22 24 12 6 11 23 20 24 17 13 16 9 6 15 22 17 20 29
12 15 17 20 21 20 15 17 14 7 6 6 5 7 6 5 3 10 2 3 4 6 10 10 9 5 5 20 29 10 26 21 20 8 2 19 17 10 10 7 16 23 17 19 28
11 13 17 20 22 17 14 13 14 12 8 6 6 4 6 3 5 6 2 4 3 4 10 12 9 3 11 22 24 17 10 7 5 5 18 14 10 9 11 11 16 21 17 16 23
8 11 15 19 18 15 11 12 13 13 10 8 7 9 9 5 7 6 8 2 4 8 11 5 7 15 12 18 19 19 7 4 3 5 9 9 6 12 8 12 14 19 18 15 20
6 9 13 17 13 20 11 12 10 12 10 9 6 7 16 6 9 9 2 2 1 4 8 17 13 12 10 20 23 15 6 2 7 7 4 9 2 3 14 13 16 17 18 19 18
4 7 11 16 15 12 11 9 8 9 11 8 9 9 5 10 12 10 3 7 3 9 17 9 6 19 32 10 9 7 7 6 3 6 2 2 6 7 13 17 17 17 18 19 19
3 5 7 13 13 12 15 10 9 11 7 10 10 4 5 8 12 10 6 8 14 16 11 3 9 6 2 10 6 8 6 7 3 7 4 5 9 8 12 15 18 17 18 18 18
5 5 6 6 9 4 4 6 12 21 9 5 14 4 11 9 7 7 4 6 3 1 7 9 11 5 4 4 5 7 10 8 7 7 6 6 3 8 10 11 19 18 18 17 17
6 7 9 8 6 8 9 9 6 5 21 12 8 9 8 7 8 13 9 8 7 5 2 4 2 3 5 4 6 9 12 9 7 1 5 7 8 8 9 6 11 19 19 17 15
7 7 10 13 10 6 6 3 10 5 5 10 9 10 12 6 5 7 9 5 3 2 3 6 6 4 8 3 3 7 11 8 6 3 3 6 7 8 8 7 8 9 17 17 17
7 9 11 10 12 9 6 3 3 2 2 3 6 4 2 5 2 7 8 11 7 3 9 2 3 8 3 7 10 5 4 6 6 4 3 7 3 7 4 3 4 4 4 10 14
11 9 8 4 1 2 2 2 3 3 1 8 8 7 5 4 1 9 6 2 3 2 7 5 12 6 7 6 7 4 10 5 13 5 4 2 3 6 7 6 6 10 7 6 8
15 8 6 4 1 0 1 2 3 3 3 9 5 9 10 4 8 9 10 6 7 2 2 3 7 9 7 5 8 0 8 4 5 3 5 3 3 3 9 7 7 11 13 11 9
12 11 5 2 4 2 3 5 5 3 3 6 3 6 5 10 4 5 2 5 3 6 9 3 2 4 5 2 3 3 3 2 2 4 2 2 3 3 3 4 8 11 12 11 8
9 11 7 2 1 2 2 2 4 5 1 7 3 6 7 5 4 3 4 5 4 4 3 3 4 2 5 3 2 3 2 2 3 3 4 1 2 4 4 3 6 13 14 11 10
3 14 8 4 3 3 2 1 7 4 2 1 3 10 3 7 1 5 2 5 9 6 3 2 3 7 10 4 2 4 2 4 3 3 3 1 3 4 5 8 7 11 9 9 8
4 7 16 7 3 3 2 5 2 4 3 6 6 4 3 3 2 2 5 6 5 9 5 2 2 2 3 3 3 4 4 0 3 1 4 2 3 3 3 3 1 4 7 9 8
4 5 11 6 5 2 4 4 2 1 2 4 5 2 5 5 5 7 6 5 6 7 8 5 3 1 0 3 3 4 2 2 3 2 1 3 2 4 4 6 7 9 10 9 9
4 4 11 2 4 5 4 3 3 2 5 4 4 4 4 4 3 3 5 3 7 8 13 5 2 2 2 4 3 2 2 1 2 3 2 1 4 2 6 4 8 8 8 9 10
4 2 12 3 3 4 2 3 4 2 1 1 3 4 5 5 4 3 3 1 5 5 3 3 3 2 3 3 2 2 3 2 4 2 1 3 5 1 5 5 6 5 7 7 7
2 2 6 2 1 2 2 2 1 3 2 1 2 2 3 3 3 5 4 2 6 4 3 5 2 1 2 1 1 2 1 3 2 2 4 3 5 3 4 4 4 1 2 8 9
3 1 3 5 5 4 3 2 2 1 1 0 1 4 3 1 2 3 3 2 4 4 3 4 0 4 5 4 3 2 3 2 2 1 3 5 2 3 3 3 2 6 6 7 8
3 0 1 1 3 3 3 1 3 2 2 2 3 1 3 1 1 2 1 4 2 3 2 4 4 4 4 6 2 3 5 6 8 8 1 5 10 8 7 8 18 16 14 11 8
1 2 2 1 1 2 2 2 2 2 3 4 2 2 3 3 4 4 5 4 5 2 4 2 1 2 3 5 3 7 9 9 9 9 12 10 15 4 6 7 9 7 6 7 8
2 2 1 3 1 2 1 4 3 2 0 4 4 3 1 3 4 6 5 8 5 5 2 2 2 3 3 3 6 7 5 10 4 3 5 6 4 7 7 10 10 10 9 11 13
Wind_Direction
33 22 11 359 350 345 341 339 339 347 354 356 2 353 332 356 90 186 179 214 216 231 205 206 210 187 189 206 207 210 248 214 209 205 225 294 127 72 94 126 99 78 109 155 168
26 16 5 352 345 341 335 334 331 335 355 13 16 18 22 90 139 203 254 259 229 206 204 205 215 203 208 197 208 196 218 226 225 193 203 199 181 134 153 128 109 102 120 148 168
21 15 7 359 358 357 353 342 333 336 12 28 24 28 76 58 53 33 5 203 206 202 185 201 214 225 216 190 204 210 237 237 229 226 187 174 191 166 178 162 163 150 157 159 169
18 17 10 5 7 5 8 14 28 47 54 42 54 83 52 30 47 342 5 132 129 187 168 184 184 206 270 194 198 188 235 260 246 182 137 184 205 157 229 111 103 173 176 164 171
19 13 4 2 8 11 24 38 37 36 32 47 98 53 11 53 14 22 47 355 249 174 177 171 165 147 253 187 182 214 234 302 20 101 131 192 175 176 117 128 119 140 164 167 171
14 10 6 6 15 21 32 28 34 37 47 57 60 28 327 66 7 351 333 12 355 206 194 189 166 216 305 236 184 203 206 228 263 148 126 140 167 156 113 127 134 146 155 172 172
11 8 9 10 17 24 27 37 53 37 37 50 51 79 50 39 18 9 84 351 24 173 136 128 105 222 268 216 196 147 122 166 227 116 121 177 79 11 146 141 137 148 159 169 171
359 3 13 18 22 18 34 38 39 40 35 40 48 72 63 24 22 18 30 18 29 146 118 66 1 272 255 169 155 140 133 158 192 174 127 141 179 130 151 147 145 150 161 169 173
314 342 4 24 51 59 61 42 29 14 17 23 15 327 60 8 10 28 30 20 120 124 136 237 295 261 310 207 143 193 164 159 141 229 136 192 135 151 165 163 150 153 158 165 169
273 284 314 356 24 47 22 23 52 25 21 346 14 62 39 3 18 20 32 101 150 251 261 210 212 183 209 181 177 180 184 153 151 198 178 179 118 133 181 194 160 161 164 173 181
289 270 279 293 326 11 25 4 1 42 43 47 29 64 30 4 29 67 81 28 336 319 256 202 192 51 218 7 337 190 195 159 101 64 166 175 137 158 168 210 182 170 170 180 184
310 307 290 276 281 304 355 50 66 72 66 71 77 65 52 40 59 28 21 312 249 263 327 50 56 12 290 305 324 291 230 113 66 81 48 119 141 158 158 196 214 185 174 184 179
323 315 314 288 267 270 300 292 239 338 289 55 49 42 8 8 11 339 335 323 336 22 90 106 11 299 284 33 6 49 75 160 133 136 1 113 227 141 164 155 187 205 120 144 159
3 349 346 355 43 264 270 273 231 208 48 351 4 13 340 325 229 7 8 359 145 319 61 35 348 277 67 63 15 42 326 76 130 121 159 103 238 187 166 204 185 196 208 187 205
11 9 15 41 97 248 287 147 151 153 53 330 350 340 337 31 328 7 24 51 25 160 126 331 1 6 50 17 317 135 322 32 149 123 98 203 81 286 137 188 200 183 161 147 154
2 12 17 52 69 82 132 133 130 31 10 329 341 351 2 27 21 354 10 35 352 61 71 109 247 13 24 311 330 248 254 225 360 104 48 33 109 263 191 211 159 140 141 163 175
2 15 19 39 153 78 119 131 49 69 350 331 334 330 309 1 28 9 52 50 34 53 55 91 39 128 3 287 246 270 333 40 27 17 212 196 66 245 132 13 137 146 155 168 186
330 27 28 24 86 118 109 128 65 218 48 319 282 299 56 4 131 3 45 44 28 349 18 102 353 15 333 44 323 359 45 120 149 171 222 76 229 249 99 74 65 96 127 168 184
297 336 20 21 82 128 113 59 32 26 336 337 275 310 104 79 239 330 66 24 39 10 20 56 52 162 30 351 342 322 48 301 95 359 56 206 245 41 95 106 137 157 186 196 194
334 336 357 28 73 62 68 108 110 264 307 277 0 357 24 40 22 27 44 359 345 6 323 334 92 28 117 230 41 53 214 65 354 68 303 278 211 227 288 211 195 196 197 197 193
14 335 343 348 54 53 89 70 95 31 350 332 357 335 47 353 52 57 25 77 358 334 310 355 155 281 271 19 20 10 106 162 158 117 154 7 278 122 207 217 188 197 197 195 199
22 272 354 25 40 53 95 120 170 122 94 314 289 334 341 354 27 107 109 70 345 292 7 52 298 86 76 116 27 335 353 322 99 344 54 115 279 126 96 70 73 178 177 196 205
360 317 356 350 43 71 162 106 308 187 133 124 12 345 328 352 341 17 43 9 1 16 9 327 38 41 334 44 188 320 127 8 66 50 233 121 265 133 134 139 145 195 194 201 206
354 329 9 44 28 109 158 155 140 127 94 200 152 218 257 33 69 42 69 101 16 54 348 301 264 137 166 200 206 261 168 183 265 66 279 230 291 183 139 53 309 215 232 244 234
355 63 256 350 58 47 348 237 149 174 279 265 199 360 14 324 180 80 36 169 110 22 356 33 30 52 288 281 267 243 253 209 200 227 241 292 329 344 18 35 11 27 19 2 328
68 324 355 83 123 266 126 198 223 139 202 160 281 73 345 357 21 2 350 30 53 145 353 21 91 37 299 55 318 275 255 244 253 244 243 267 282 81 54 37 19 4 1 345 318
76 72 13 163 208 253 186 150 157 110 29 11 23 319 231 51 12 346 335 326 321 347 352 354 359 27 286 26 312 290 235 209 206 238 223 241 251 14 13 9 351 342 343 337 328